Chippewa, MI

12:48 AM EST on December 11, 2019 (GMT -0500)
Chippewa County International

Weather History for KCIU - October, 2019

Change the Weather History Date:

Saturday, October 26, 2019

  Actual Average Record
Temperature  
Mean Temperature 41 °F -  
Max Temperature 48 °F 47 °F 66 °F (1989)
Min Temperature 34 °F 31 °F 19 °F (1990)
Degree Days  
Heating Degree Days 24    
Moisture  
Dew Point 36 °F    
Average Humidity 80    
Maximum Humidity 100    
Minimum Humidity 52    
Precipitation  
Precipitation 0.00 in - - ()
Sea Level Pressure  
Sea Level Pressure 30.07 in    
Wind  
Wind Speed 8 mph ()    
Max Wind Speed 18 mph    
Max Gust Speed 24 mph    
Visibility 9.8 miles    
Events      
Averages and records for this station are not official NWS values.
T = Trace of Precipitation, MM = Missing Value Source: Averaged Metar Reports

Daily Weather History Graph

Daily Weather History Graph

Search for Another Location

Airport or City:

Astronomy

Oct. 26, 2019 Rise Set
Actual Time 8:10 AM EDT 6:32 PM EDT
Civil Twilight 7:39 AM EDT 7:03 PM EDT
Nautical Twilight 7:03 AM EDT 7:38 PM EDT
Astronomical Twilight 6:29 AM EDT 8:13 PM EDT
Moon 5:53 AM EDT (10/26) 6:16 PM EDT (10/26)
Length of Visible Light 11h 24m
Length of Day
10h 22m
Waning Crescent, 3% of the Moon is Illuminated
Oct 26
Waning Crescent
Oct 27
New
Nov 4
First Quarter
Nov 12
Full
Nov 19
Last Quarter

Hourly Weather History & Observations

Time (EDT) Temp. Windchill Dew Point Humidity Pressure Visibility Wind Dir Wind Speed Gust Speed Precip Events Conditions
12:56 AM 35.1 °F 32.2 °F 32.0 °F 89% 30.19 in 10.0 mi SW 3.5 mph - N/A   Clear
1:56 AM 36.0 °F 31.1 °F 34.0 °F 93% 30.18 in 10.0 mi South 5.8 mph - N/A   Clear
2:56 AM 36.0 °F - 33.1 °F 89% 30.19 in 10.0 mi Calm Calm - N/A   Mostly Cloudy
3:56 AM 35.1 °F 30.1 °F 34.0 °F 96% 30.18 in 10.0 mi South 5.8 mph - N/A   Clear
4:56 AM 36.0 °F 30.3 °F 35.1 °F 97% 30.17 in 10.0 mi South 6.9 mph - N/A   Clear
5:56 AM 36.0 °F 29.6 °F 36.0 °F 100% 30.16 in 10.0 mi South 8.1 mph - N/A   Clear
6:56 AM 36.0 °F 30.3 °F 36.0 °F 100% 30.15 in 9.0 mi South 6.9 mph - N/A   Clear
7:56 AM 34.0 °F 29.8 °F 34.0 °F 100% 30.15 in 5.0 mi South 4.6 mph - N/A   Clear
8:56 AM 37.0 °F 30.4 °F 37.0 °F 100% 30.14 in 10.0 mi SSE 9.2 mph - N/A   Clear
9:56 AM 41.0 °F 34.7 °F 37.9 °F 89% 30.14 in 10.0 mi South 10.4 mph - N/A   Clear
10:56 AM 45.0 °F 39.7 °F 37.9 °F 76% 30.14 in 10.0 mi South 10.4 mph - N/A   Clear
11:56 AM 46.9 °F - 33.1 °F 59% 30.13 in 10.0 mi South 12.7 mph 20.7 mph N/A   Clear
12:56 PM 48.0 °F - 35.1 °F 61% 30.12 in 10.0 mi SE 15.0 mph - N/A   Clear
1:56 PM 48.0 °F - 35.1 °F 61% 30.09 in 10.0 mi SSE 16.1 mph 21.9 mph N/A   Clear
2:56 PM 48.0 °F - 34.0 °F 58% 30.05 in 10.0 mi ESE 12.7 mph - N/A   Clear
3:56 PM 48.0 °F - 30.9 °F 52% 30.04 in 10.0 mi SSE 16.1 mph - N/A   Clear
4:56 PM 46.9 °F - 34.0 °F 61% 30.04 in 10.0 mi SE 18.4 mph 24.2 mph N/A   Clear
5:56 PM 46.0 °F 40.2 °F 35.1 °F 66% 30.01 in 10.0 mi SE 12.7 mph - N/A   Clear
6:56 PM 44.1 °F 37.7 °F 37.0 °F 76% 30.00 in 10.0 mi ESE 12.7 mph - N/A   Clear
7:56 PM 44.1 °F 37.7 °F 37.9 °F 79% 29.97 in 10.0 mi ESE 12.7 mph - N/A   Clear
8:56 PM 44.1 °F 37.7 °F 37.9 °F 79% 29.94 in 10.0 mi SE 12.7 mph - N/A   Clear
9:56 PM 44.1 °F 39.0 °F 37.9 °F 79% 29.91 in 10.0 mi ESE 9.2 mph - N/A   Clear
10:56 PM 44.1 °F 38.1 °F 39.0 °F 82% 29.87 in 10.0 mi East 11.5 mph - N/A   Clear
11:56 PM 45.0 °F 38.5 °F 39.9 °F 82% 29.82 in 10.0 mi East 13.8 mph - N/A   Clear